| time (UTC) | temp F | wind direction | speed knots | gust knots | rain 1hr in | rain 24hr in | rain mn in | humidity % | barometer mb |
| 20260508054503 | 61 | 355 | 0.0 | 1.7 | 0.00 | 0.00 | 0.00 | 83 | 1013.6 |
| 20260508054000 | 61 | 325 | 0.9 | 1.7 | 0.00 | 0.00 | 0.00 | 83 | 1013.7 |
| 20260508053456 | 61 | 346 | 0.0 | 1.7 | 0.00 | 0.00 | 0.00 | 83 | 1013.6 |
| 20260508052954 | 61 | 343 | 0.9 | 1.7 | 0.00 | 0.00 | 0.00 | 83 | 1013.6 |
| 20260508052452 | 62 | 349 | 1.7 | 1.7 | 0.00 | 0.00 | 0.00 | 82 | 1013.6 |
| 20260508051948 | 62 | 316 | 1.7 | 1.7 | 0.00 | 0.00 | 0.00 | 82 | 1013.7 |
| 20260508051443 | 62 | 6 | 0.9 | 1.7 | 0.00 | 0.00 | 0.00 | 82 | 1013.6 |
| 20260508050940 | 62 | 355 | 0.9 | 1.7 | 0.00 | 0.00 | 0.00 | 82 | 1013.6 |
| 20260508050437 | 62 | 334 | 1.7 | 1.7 | 0.00 | 0.00 | 0.00 | 82 | 1013.7 |
| 20260508045933 | 62 | 10 | 1.7 | 1.7 | 0.00 | 0.00 | 0.00 | 82 | 1013.6 |
| 20260508045431 | 62 | 338 | 0.9 | 1.7 | 0.00 | 0.00 | 0.00 | 82 | 1013.5 |
| 20260508044928 | 62 | 5 | 1.7 | 1.7 | 0.00 | 0.00 | 0.00 | 82 | 1013.5 |
| 20260508044425 | 62 | 323 | 0.9 | 1.7 | 0.00 | 0.00 | 0.00 | 82 | 1013.4 |
| 20260508043920 | 62 | 14 | 0.9 | 1.7 | 0.00 | 0.00 | 0.00 | 82 | 1013.4 |
| 20260508043418 | 62 | 343 | 1.7 | 1.7 | 0.00 | 0.00 | 0.00 | 82 | 1013.3 |
| 20260508042914 | 62 | 353 | 1.7 | 1.7 | 0.00 | 0.00 | 0.00 | 82 | 1013.1 |
| 20260508042412 | 62 | 5 | 1.7 | 1.7 | 0.00 | 0.00 | 0.00 | 82 | 1013.1 |
| 20260508041909 | 62 | 303 | 1.7 | 2.6 | 0.00 | 0.00 | 0.00 | 82 | 1013.1 |
| 20260508041405 | 62 | 0 | 0.0 | 1.7 | 0.00 | 0.00 | 0.00 | 82 | 1012.9 |
| 20260508040901 | 62 | 346 | 0.9 | 1.7 | 0.00 | 0.00 | 0.00 | 82 | 1012.9 |
| 20260508040359 | 62 | 3 | 0.9 | 1.7 | 0.00 | 0.00 | 0.00 | 82 | 1012.7 |
| 20260508035857 | 62 | 330 | 0.0 | 1.7 | 0.00 | 0.00 | 0.00 | 82 | 1012.6 |
| 20260508035354 | 62 | 11 | 0.9 | 1.7 | 0.00 | 0.00 | 0.00 | 82 | 1012.5 |
| 20260508034850 | 62 | 319 | 0.9 | 2.6 | 0.00 | 0.00 | 0.00 | 82 | 1012.7 |
| 20260508034348 | 61 | 7 | 1.7 | 1.7 | 0.00 | 0.00 | 0.00 | 82 | 1012.5 |
| 20260508033844 | 61 | 18 | 0.9 | 1.7 | 0.00 | 0.00 | 0.00 | 82 | 1012.4 |
| 20260508033343 | 62 | 37 | 1.7 | 2.6 | 0.00 | 0.00 | 0.00 | 81 | 1012.3 |
| 20260508032840 | 62 | 351 | 0.9 | 1.7 | 0.00 | 0.00 | 0.00 | 81 | 1012.3 |
| 20260508032337 | 62 | 0 | 0.0 | 1.7 | 0.00 | 0.00 | 0.00 | 81 | 1012.3 |
| 20260508031833 | 62 | 22 | 1.7 | 2.6 | 0.00 | 0.00 | 0.00 | 80 | 1012.2 |
| 20260508031330 | 62 | 305 | 1.7 | 2.6 | 0.00 | 0.00 | 0.00 | 81 | 1012.1 |
| 20260508030827 | 62 | 354 | 1.7 | 2.6 | 0.00 | 0.00 | 0.00 | 81 | 1011.9 |
| 20260508030324 | 62 | 338 | 0.9 | 1.7 | 0.00 | 0.00 | 0.00 | 80 | 1012.1 |
| 20260508025821 | 62 | 19 | 0.9 | 1.7 | 0.00 | 0.00 | 0.00 | 80 | 1012.0 |
| 20260508025318 | 63 | 323 | 1.7 | 1.7 | 0.00 | 0.00 | 0.00 | 80 | 1012.0 |
| 20260508024815 | 63 | 311 | 0.9 | 2.6 | 0.00 | 0.00 | 0.00 | 79 | 1011.9 |
| 20260508024311 | 63 | 353 | 1.7 | 1.7 | 0.00 | 0.00 | 0.00 | 78 | 1011.9 |
| 20260508023808 | 63 | 23 | 0.9 | 1.7 | 0.00 | 0.00 | 0.00 | 78 | 1011.7 |
| 20260508023305 | 64 | 28 | 1.7 | 2.6 | 0.00 | 0.00 | 0.00 | 77 | 1011.7 |
| 20260508022801 | 64 | 305 | 0.9 | 1.7 | 0.00 | 0.00 | 0.00 | 76 | 1011.6 |
| 20260508022257 | 64 | 0 | 1.7 | 1.7 | 0.00 | 0.00 | 0.00 | 75 | 1011.6 |
| 20260508021755 | 65 | 351 | 0.9 | 2.6 | 0.00 | 0.00 | 0.00 | 74 | 1011.6 |
| 20260508021250 | 65 | 325 | 0.9 | 2.6 | 0.00 | 0.00 | 0.00 | 73 | 1011.7 |
| 20260508020747 | 65 | 359 | 0.9 | 2.6 | 0.00 | 0.00 | 0.00 | 71 | 1011.5 |
| 20260508020245 | 66 | 328 | 0.9 | 2.6 | 0.00 | 0.00 | 0.00 | 71 | 1011.5 |
| 20260508015741 | 66 | 14 | 1.7 | 2.6 | 0.00 | 0.00 | 0.00 | 70 | 1011.4 |
| 20260508015238 | 67 | 334 | 0.0 | 2.6 | 0.00 | 0.00 | 0.00 | 69 | 1011.4 |
| 20260508014735 | 67 | 348 | 1.7 | 3.5 | 0.00 | 0.00 | 0.00 | 68 | 1011.3 |
| 20260508014232 | 68 | 309 | 0.9 | 3.5 | 0.00 | 0.00 | 0.00 | 67 | 1011.5 |
| 20260508013728 | 68 | 356 | 0.0 | 3.5 | 0.00 | 0.00 | 0.00 | 67 | 1011.3 |
| 20260508013224 | 69 | 7 | 1.7 | 1.7 | 0.00 | 0.00 | 0.00 | 66 | 1011.1 |
| 20260508012722 | 69 | 309 | 0.9 | 1.7 | 0.00 | 0.00 | 0.00 | 65 | 1011.3 |
| 20260508012219 | 69 | 11 | 0.9 | 2.6 | 0.00 | 0.00 | 0.00 | 65 | 1011.3 |
| 20260508011717 | 69 | 323 | 1.7 | 2.6 | 0.00 | 0.00 | 0.00 | 65 | 1011.5 |
| 20260508011214 | 70 | 0 | 1.7 | 3.5 | 0.00 | 0.00 | 0.00 | 63 | 1011.5 |
| 20260508010711 | 71 | 4 | 1.7 | 3.5 | 0.00 | 0.00 | 0.00 | 61 | 1011.4 |
| 20260508010209 | 71 | 340 | 0.9 | 3.5 | 0.00 | 0.00 | 0.00 | 62 | 1011.2 |
| 20260508005706 | 71 | 328 | 1.7 | 2.6 | 0.00 | 0.00 | 0.00 | 61 | 1011.2 |
| 20260508005202 | 71 | 20 | 1.7 | 2.6 | 0.00 | 0.00 | 0.00 | 60 | 1011.4 |
| 20260508004658 | 72 | 0 | 0.9 | 3.5 | 0.00 | 0.00 | 0.00 | 59 | 1011.4 |
| 20260508004154 | 72 | 337 | 2.6 | 2.6 | 0.00 | 0.00 | 0.00 | 58 | 1011.5 |
| 20260508003651 | 72 | 4 | 1.7 | 5.2 | 0.00 | 0.00 | 0.00 | 58 | 1011.3 |
| 20260508003149 | 73 | 356 | 1.7 | 3.5 | 0.00 | 0.00 | 0.00 | 57 | 1011.3 |
| 20260508002645 | 74 | 349 | 0.9 | 2.6 | 0.00 | 0.00 | 0.00 | 56 | 1011.3 |
| 20260508002143 | 74 | 320 | 1.7 | 2.6 | 0.00 | 0.00 | 0.00 | 55 | 1011.3 |
| 20260508001638 | 74 | 298 | 2.6 | 3.5 | 0.00 | 0.00 | 0.00 | 55 | 1011.5 |
| 20260508001134 | 74 | 325 | 1.7 | 3.5 | 0.00 | 0.00 | 0.00 | 55 | 1011.2 |
| 20260508000630 | 75 | 24 | 1.7 | 3.5 | 0.00 | 0.00 | 0.00 | 53 | 1011.6 |
| 20260508000128 | 75 | 347 | 1.7 | 3.5 | 0.00 | 0.00 | 0.00 | 52 | 1011.4 |
| 20260507235624 | 75 | 342 | 1.7 | 3.5 | 0.00 | 0.00 | 0.00 | 54 | 1011.4 |
| 20260507235122 | 75 | 344 | 1.7 | 2.6 | 0.00 | 0.00 | 0.00 | 55 | 1011.5 |
| 20260507234618 | 74 | 358 | 1.7 | 2.6 | 0.00 | 0.00 | 0.00 | 55 | 1011.3 |
| 20260507234114 | 74 | 354 | 0.0 | 3.5 | 0.00 | 0.00 | 0.00 | 56 | 1011.3 |
| 20260507233611 | 74 | 1 | 0.9 | 3.5 | 0.00 | 0.00 | 0.00 | 57 | 1011.5 |
| 20260507233110 | 74 | 336 | 1.7 | 3.5 | 0.00 | 0.00 | 0.00 | 57 | 1011.5 |
| 20260507232606 | 74 | 323 | 2.6 | 3.5 | 0.00 | 0.00 | 0.00 | 56 | 1011.5 |
| 20260507232103 | 75 | 345 | 1.7 | 4.3 | 0.00 | 0.00 | 0.00 | 55 | 1011.4 |
| 20260507231600 | 74 | 20 | 2.6 | 2.6 | 0.00 | 0.00 | 0.00 | 57 | 1011.4 |
| 20260507231057 | 74 | 340 | 1.7 | 2.6 | 0.00 | 0.00 | 0.00 | 57 | 1011.6 |
| 20260507230553 | 74 | 324 | 1.7 | 2.6 | 0.00 | 0.00 | 0.00 | 57 | 1011.6 |
| 20260507230050 | 74 | 335 | 0.9 | 2.6 | 0.00 | 0.00 | 0.00 | 58 | 1011.6 |
| 20260507225544 | 74 | 32 | 1.7 | 3.5 | 0.00 | 0.00 | 0.00 | 59 | 1011.5 |
| 20260507225041 | 74 | 326 | 0.9 | 4.3 | 0.00 | 0.00 | 0.00 | 59 | 1011.7 |
| 20260507224537 | 75 | 348 | 1.7 | 2.6 | 0.00 | 0.00 | 0.00 | 57 | 1011.7 |
| 20260507224034 | 75 | 46 | 1.7 | 3.5 | 0.00 | 0.00 | 0.00 | 57 | 1012.0 |
| 20260507223530 | 76 | 348 | 0.9 | 3.5 | 0.00 | 0.00 | 0.00 | 56 | 1011.7 |
| 20260507223027 | 75 | 333 | 0.9 | 2.6 | 0.00 | 0.00 | 0.00 | 57 | 1011.7 |
| 20260507222525 | 75 | 4 | 1.7 | 2.6 | 0.00 | 0.00 | 0.00 | 56 | 1011.7 |
| 20260507222021 | 76 | 299 | 1.7 | 3.5 | 0.00 | 0.00 | 0.00 | 55 | 1012.0 |
| 20260507221517 | 76 | 336 | 0.9 | 2.6 | 0.00 | 0.00 | 0.00 | 55 | 1011.9 |
| 20260507221014 | 75 | 335 | 1.7 | 3.5 | 0.00 | 0.00 | 0.00 | 55 | 1011.9 |
| 20260507220512 | 75 | 305 | 1.7 | 3.5 | 0.00 | 0.00 | 0.00 | 55 | 1012.0 |
| 20260507220009 | 75 | 350 | 2.6 | 3.5 | 0.00 | 0.00 | 0.00 | 55 | 1011.9 |
| 20260507215505 | 75 | 293 | 1.7 | 2.6 | 0.00 | 0.00 | 0.00 | 55 | 1012.2 |
| 20260507215003 | 75 | 3 | 0.9 | 2.6 | 0.00 | 0.00 | 0.00 | 55 | 1012.2 |
| 20260507214500 | 75 | 275 | 2.6 | 2.6 | 0.00 | 0.00 | 0.00 | 56 | 1012.1 |
| 20260507213955 | 75 | 285 | 0.9 | 3.5 | 0.00 | 0.00 | 0.00 | 56 | 1012.3 |
| 20260507213452 | 75 | 11 | 1.7 | 4.3 | 0.00 | 0.00 | 0.00 | 57 | 1012.2 |
| 20260507212949 | 75 | 8 | 1.7 | 2.6 | 0.00 | 0.00 | 0.00 | 56 | 1012.4 |
| 20260507212444 | 74 | 315 | 0.9 | 2.6 | 0.00 | 0.00 | 0.00 | 57 | 1012.3 |
| 20260507211942 | 75 | 320 | 1.7 | 2.6 | 0.00 | 0.00 | 0.00 | 57 | 1012.4 |
| 20260507211438 | 76 | 344 | 1.7 | 3.5 | 0.00 | 0.00 | 0.00 | 55 | 1012.4 |
| 20260507210935 | 75 | 308 | 1.7 | 3.5 | 0.00 | 0.00 | 0.00 | 55 | 1012.6 |
| 20260507210432 | 76 | 343 | 0.9 | 3.5 | 0.00 | 0.00 | 0.00 | 55 | 1012.7 |
| 20260507205929 | 75 | 33 | 1.7 | 2.6 | 0.00 | 0.00 | 0.00 | 57 | 1012.6 |
| 20260507205426 | 75 | 342 | 1.7 | 3.5 | 0.00 | 0.00 | 0.00 | 56 | 1012.8 |
| 20260507204922 | 74 | 302 | 1.7 | 4.3 | 0.00 | 0.00 | 0.00 | 58 | 1012.8 |
| 20260507204418 | 74 | 24 | 1.7 | 3.5 | 0.00 | 0.00 | 0.00 | 58 | 1012.8 |
| 20260507203916 | 74 | 315 | 1.7 | 3.5 | 0.00 | 0.00 | 0.00 | 59 | 1012.9 |
| 20260507203414 | 74 | 25 | 1.7 | 3.5 | 0.00 | 0.00 | 0.00 | 57 | 1012.9 |
| 20260507202910 | 74 | 301 | 1.7 | 2.6 | 0.00 | 0.00 | 0.00 | 58 | 1012.9 |
| 20260507202407 | 75 | 304 | 1.7 | 3.5 | 0.00 | 0.00 | 0.00 | 57 | 1012.8 |
| 20260507201902 | 75 | 326 | 1.7 | 3.5 | 0.00 | 0.00 | 0.00 | 57 | 1013.0 |
| 20260507201358 | 75 | 358 | 1.7 | 3.5 | 0.00 | 0.00 | 0.00 | 57 | 1012.8 |
| 20260507200854 | 75 | 359 | 1.7 | 2.6 | 0.00 | 0.00 | 0.00 | 57 | 1013.0 |
| 20260507200350 | 76 | 326 | 1.7 | 3.5 | 0.00 | 0.00 | 0.00 | 55 | 1013.1 |
| 20260507195846 | 76 | 323 | 2.6 | 3.5 | 0.00 | 0.00 | 0.00 | 56 | 1013.1 |
| 20260507195344 | 76 | 8 | 1.7 | 2.6 | 0.00 | 0.00 | 0.00 | 55 | 1013.4 |
| 20260507194841 | 76 | 351 | 1.7 | 2.6 | 0.00 | 0.00 | 0.00 | 57 | 1013.4 |
| 20260507194337 | 75 | 347 | 1.7 | 3.5 | 0.00 | 0.00 | 0.00 | 56 | 1013.3 |
| 20260507193834 | 75 | 314 | 1.7 | 2.6 | 0.00 | 0.00 | 0.00 | 57 | 1013.4 |
| 20260507193332 | 76 | 28 | 1.7 | 2.6 | 0.00 | 0.00 | 0.00 | 56 | 1013.5 |
| 20260507192827 | 76 | 332 | 1.7 | 1.7 | 0.00 | 0.00 | 0.00 | 56 | 1013.7 |
| 20260507192324 | 75 | 325 | 1.7 | 1.7 | 0.00 | 0.00 | 0.00 | 55 | 1013.5 |
| 20260507191820 | 75 | 351 | 1.7 | 3.5 | 0.00 | 0.00 | 0.00 | 55 | 1013.6 |
| 20260507191316 | 75 | 356 | 0.9 | 2.6 | 0.00 | 0.00 | 0.00 | 59 | 1013.4 |
| 20260507190814 | 75 | 0 | 0.9 | 2.6 | 0.00 | 0.00 | 0.00 | 56 | 1013.4 |
| 20260507190312 | 75 | 9 | 1.7 | 2.6 | 0.00 | 0.00 | 0.00 | 57 | 1013.7 |
| 20260507185811 | 74 | 311 | 1.7 | 1.7 | 0.00 | 0.00 | 0.00 | 58 | 1013.7 |
| 20260507185307 | 75 | 2 | 1.7 | 1.7 | 0.00 | 0.00 | 0.00 | 56 | 1013.6 |
| 20260507184805 | 75 | 354 | 0.9 | 1.7 | 0.00 | 0.00 | 0.00 | 57 | 1013.8 |
| 20260507184303 | 74 | 349 | 0.0 | 1.7 | 0.00 | 0.00 | 0.00 | 58 | 1013.9 |
| 20260507183759 | 74 | 308 | 0.9 | 2.6 | 0.00 | 0.00 | 0.00 | 57 | 1013.7 |
| 20260507183256 | 74 | 330 | 1.7 | 2.6 | 0.00 | 0.00 | 0.00 | 58 | 1013.7 |
| 20260507182754 | 73 | 350 | 1.7 | 1.7 | 0.00 | 0.00 | 0.00 | 58 | 1013.7 |
| 20260507182254 | 73 | 1 | 1.7 | 2.6 | 0.00 | 0.00 | 0.00 | 59 | 1014.0 |
| 20260507181751 | 73 | 298 | 0.9 | 2.6 | 0.00 | 0.00 | 0.00 | 60 | 1013.8 |
| 20260507181247 | 73 | 352 | 0.9 | 2.6 | 0.00 | 0.00 | 0.00 | 58 | 1013.8 |
| 20260507180744 | 73 | 288 | 1.7 | 2.6 | 0.00 | 0.00 | 0.00 | 60 | 1014.0 |
| 20260507180241 | 73 | 3 | 0.9 | 2.6 | 0.00 | 0.00 | 0.00 | 60 | 1013.8 |
| 20260507175736 | 72 | 339 | 1.7 | 2.6 | 0.00 | 0.00 | 0.00 | 61 | 1013.8 |
| 20260507175233 | 72 | 329 | 1.7 | 1.7 | 0.00 | 0.00 | 0.00 | 61 | 1013.8 |
| 20260507174731 | 72 | 310 | 1.7 | 2.6 | 0.00 | 0.00 | 0.00 | 63 | 1013.7 |
| 20260507174229 | 72 | 317 | 1.7 | 2.6 | 0.00 | 0.00 | 0.00 | 61 | 1013.9 |
| 20260507173726 | 72 | 358 | 0.9 | 2.6 | 0.00 | 0.00 | 0.00 | 63 | 1014.0 |
| 20260507173223 | 72 | 359 | 1.7 | 2.6 | 0.00 | 0.00 | 0.00 | 62 | 1014.2 |
| 20260507172719 | 71 | 0 | 1.7 | 2.6 | 0.00 | 0.00 | 0.00 | 62 | 1013.9 |
| 20260507172211 | 71 | 5 | 1.7 | 1.7 | 0.00 | 0.00 | 0.00 | 63 | 1014.1 |
| 20260507171710 | 71 | 349 | 1.7 | 2.6 | 0.00 | 0.00 | 0.00 | 65 | 1014.0 |
| 20260507171208 | 70 | 302 | 1.7 | 2.6 | 0.00 | 0.00 | 0.00 | 64 | 1014.1 |
| 20260507170705 | 71 | 0 | 0.0 | 3.5 | 0.00 | 0.00 | 0.00 | 63 | 1013.9 |
| 20260507170202 | 70 | 340 | 0.9 | 2.6 | 0.00 | 0.00 | 0.00 | 64 | 1013.9 |
| 20260507165657 | 70 | 324 | 0.0 | 1.7 | 0.00 | 0.00 | 0.00 | 66 | 1013.9 |
| 20260507165154 | 69 | 356 | 1.7 | 2.6 | 0.00 | 0.00 | 0.00 | 68 | 1014.0 |
| 20260507164649 | 68 | 309 | 0.9 | 3.5 | 0.00 | 0.00 | 0.00 | 69 | 1014.0 |
| 20260507164147 | 67 | 312 | 1.7 | 2.6 | 0.00 | 0.00 | 0.00 | 72 | 1014.2 |
| 20260507163644 | 66 | 300 | 1.7 | 1.7 | 0.00 | 0.00 | 0.00 | 73 | 1014.1 |
| 20260507163142 | 65 | 329 | 0.9 | 1.7 | 0.00 | 0.00 | 0.00 | 76 | 1014.2 |
| 20260507162637 | 65 | 2 | 0.9 | 1.7 | 0.00 | 0.00 | 0.00 | 77 | 1014.1 |
| 20260507162134 | 64 | 326 | 1.7 | 1.7 | 0.00 | 0.00 | 0.00 | 78 | 1014.2 |
| 20260507161630 | 64 | 348 | 0.9 | 2.6 | 0.00 | 0.00 | 0.00 | 79 | 1014.1 |
| 20260507161127 | 63 | 327 | 0.9 | 2.6 | 0.00 | 0.00 | 0.00 | 80 | 1014.2 |
| 20260507160623 | 63 | 332 | 0.9 | 1.7 | 0.00 | 0.00 | 0.00 | 80 | 1014.1 |
| 20260507160120 | 63 | 328 | 0.9 | 2.6 | 0.00 | 0.00 | 0.00 | 81 | 1014.3 |
| 20260507155615 | 62 | 309 | 0.9 | 2.6 | 0.00 | 0.00 | 0.00 | 82 | 1014.4 |
| 20260507155112 | 62 | 334 | 0.9 | 1.7 | 0.00 | 0.00 | 0.00 | 83 | 1014.2 |
| 20260507154609 | 61 | 337 | 0.9 | 1.7 | 0.00 | 0.00 | 0.00 | 85 | 1014.3 |
| 20260507154106 | 61 | 323 | 0.9 | 1.7 | 0.00 | 0.00 | 0.00 | 84 | 1014.3 |
| 20260507153603 | 61 | 334 | 1.7 | 1.7 | 0.00 | 0.00 | 0.00 | 85 | 1014.2 |
| 20260507153059 | 60 | 344 | 0.9 | 1.7 | 0.00 | 0.00 | 0.00 | 86 | 1014.3 |
| 20260507152555 | 60 | 15 | 0.9 | 1.7 | 0.00 | 0.00 | 0.00 | 87 | 1014.2 |
| 20260507152052 | 59 | 347 | 0.9 | 1.7 | 0.00 | 0.00 | 0.00 | 88 | 1014.3 |
| 20260507151548 | 59 | 11 | 0.9 | 2.6 | 0.00 | 0.00 | 0.00 | 89 | 1014.4 |
| 20260507151045 | 59 | 32 | 0.9 | 1.7 | 0.00 | 0.00 | 0.00 | 91 | 1014.2 |
| 20260507150542 | 58 | 323 | 0.9 | 1.7 | 0.00 | 0.00 | 0.00 | 92 | 1014.3 |
| 20260507150040 | 58 | 310 | 0.9 | 1.7 | 0.00 | 0.00 | 0.00 | 94 | 1014.3 |
| 20260507145540 | 57 | 322 | 0.9 | 1.7 | 0.00 | 0.00 | 0.00 | 94 | 1014.2 |
| 20260507145038 | 57 | 331 | 0.9 | 1.7 | 0.00 | 0.00 | 0.00 | 94 | 1014.3 |
| 20260507144534 | 57 | 7 | 0.0 | 1.7 | 0.00 | 0.00 | 0.00 | 95 | 1014.2 |
| 20260507144032 | 57 | 326 | 0.0 | 1.7 | 0.00 | 0.00 | 0.00 | 95 | 1014.3 |
| 20260507143529 | 56 | 338 | 0.9 | 1.7 | 0.00 | 0.00 | 0.00 | 95 | 1014.3 |
| 20260507143027 | 56 | 335 | 0.0 | 1.7 | 0.00 | 0.00 | 0.00 | 95 | 1014.2 |
| 20260507142522 | 56 | 335 | 0.9 | 1.7 | 0.00 | 0.00 | 0.00 | 95 | 1014.1 |
| 20260507142019 | 55 | 331 | 0.9 | 1.7 | 0.00 | 0.00 | 0.00 | 95 | 1014.2 |
| 20260507141515 | 55 | 343 | 0.0 | 1.7 | 0.00 | 0.00 | 0.00 | 95 | 1014.0 |
| 20260507141012 | 55 | 348 | 0.9 | 0.9 | 0.00 | 0.00 | 0.00 | 95 | 1014.0 |
| 20260507140508 | 55 | 346 | 0.9 | 1.7 | 0.00 | 0.00 | 0.00 | 95 | 1013.9 |
| 20260507140006 | 55 | 329 | 0.9 | 1.7 | 0.00 | 0.00 | 0.00 | 94 | 1013.8 |
| 20260507135502 | 54 | 332 | 0.0 | 0.9 | 0.00 | 0.00 | 0.00 | 94 | 1013.9 |
| 20260507135000 | 54 | 344 | 0.9 | 1.7 | 0.00 | 0.00 | 0.00 | 94 | 1013.8 |
| 20260507134456 | 54 | 339 | 0.9 | 1.7 | 0.00 | 0.00 | 0.00 | 94 | 1013.8 |
| 20260507133953 | 54 | 1 | 0.9 | 1.7 | 0.00 | 0.00 | 0.00 | 94 | 1013.8 |
| 20260507133448 | 54 | 347 | 0.9 | 1.7 | 0.00 | 0.00 | 0.00 | 94 | 1013.7 |
| 20260507132947 | 54 | 330 | 0.9 | 1.7 | 0.00 | 0.00 | 0.00 | 94 | 1013.8 |
| 20260507132442 | 54 | 325 | 0.9 | 0.9 | 0.00 | 0.00 | 0.00 | 94 | 1013.8 |
| 20260507131939 | 53 | 343 | 0.9 | 1.7 | 0.00 | 0.00 | 0.00 | 94 | 1013.6 |
| 20260507131436 | 53 | 0 | 0.9 | 1.7 | 0.00 | 0.00 | 0.00 | 94 | 1013.6 |
| 20260507130933 | 53 | 341 | 0.9 | 1.7 | 0.00 | 0.00 | 0.00 | 93 | 1013.6 |
| 20260507130431 | 53 | 355 | 0.9 | 1.7 | 0.00 | 0.00 | 0.00 | 93 | 1013.6 |
| 20260507125929 | 53 | 348 | 0.9 | 1.7 | 0.00 | 0.00 | 0.00 | 93 | 1013.4 |
| 20260507125426 | 53 | 353 | 0.0 | 1.7 | 0.00 | 0.00 | 0.00 | 93 | 1013.6 |
| 20260507124924 | 53 | 356 | 0.0 | 1.7 | 0.00 | 0.00 | 0.00 | 93 | 1013.5 |
| 20260507124419 | 53 | 349 | 0.9 | 1.7 | 0.00 | 0.00 | 0.00 | 93 | 1013.4 |
| 20260507123918 | 53 | 310 | 0.0 | 1.7 | 0.00 | 0.00 | 0.00 | 93 | 1013.5 |
| 20260507123415 | 53 | 358 | 0.9 | 1.7 | 0.00 | 0.00 | 0.00 | 93 | 1013.4 |
| 20260507122912 | 53 | 327 | 0.9 | 1.7 | 0.00 | 0.00 | 0.00 | 93 | 1013.4 |
| 20260507122407 | 53 | 346 | 0.9 | 1.7 | 0.00 | 0.00 | 0.00 | 93 | 1013.3 |
| 20260507121903 | 53 | 323 | 0.0 | 1.7 | 0.00 | 0.00 | 0.00 | 93 | 1013.4 |
| 20260507121359 | 54 | 348 | 0.9 | 1.7 | 0.00 | 0.00 | 0.00 | 93 | 1013.3 |
| 20260507120856 | 54 | 333 | 0.9 | 1.7 | 0.00 | 0.00 | 0.00 | 93 | 1013.3 |
| 20260507120352 | 54 | 353 | 0.9 | 1.7 | 0.00 | 0.00 | 0.00 | 93 | 1013.5 |
| 20260507115848 | 54 | 333 | 0.0 | 1.7 | 0.00 | 0.00 | 0.00 | 93 | 1013.3 |
| 20260507115344 | 54 | 355 | 0.9 | 1.7 | 0.00 | 0.00 | 0.00 | 93 | 1013.4 |
| 20260507114840 | 54 | 340 | 0.9 | 1.7 | 0.00 | 0.00 | 0.00 | 93 | 1013.4 |
| 20260507114337 | 54 | 346 | 0.9 | 1.7 | 0.00 | 0.00 | 0.00 | 93 | 1013.4 |
| 20260507113834 | 54 | 335 | 0.9 | 1.7 | 0.00 | 0.00 | 0.00 | 93 | 1013.5 |
| 20260507113332 | 54 | 332 | 1.7 | 1.7 | 0.00 | 0.00 | 0.00 | 93 | 1013.5 |
| 20260507112829 | 54 | 356 | 0.9 | 1.7 | 0.00 | 0.00 | 0.00 | 93 | 1013.5 |
| 20260507112326 | 54 | 2 | 0.9 | 1.7 | 0.00 | 0.00 | 0.00 | 93 | 1013.5 |
| 20260507111824 | 54 | 332 | 0.9 | 1.7 | 0.00 | 0.00 | 0.00 | 92 | 1013.5 |
| 20260507111320 | 54 | 347 | 0.9 | 1.7 | 0.00 | 0.00 | 0.00 | 92 | 1013.6 |
| 20260507110816 | 54 | 350 | 0.9 | 1.7 | 0.00 | 0.00 | 0.00 | 92 | 1013.6 |
| 20260507110313 | 54 | 0 | 0.0 | 1.7 | 0.00 | 0.00 | 0.00 | 92 | 1013.4 |
| 20260507105810 | 54 | 347 | 0.9 | 1.7 | 0.00 | 0.00 | 0.00 | 92 | 1013.8 |
| 20260507105307 | 54 | 341 | 0.9 | 1.7 | 0.00 | 0.00 | 0.00 | 92 | 1013.6 |
| 20260507104803 | 55 | 356 | 0.9 | 1.7 | 0.00 | 0.00 | 0.00 | 92 | 1013.7 |
| 20260507104259 | 55 | 332 | 0.9 | 1.7 | 0.00 | 0.00 | 0.00 | 92 | 1013.9 |
| 20260507103756 | 55 | 347 | 0.9 | 0.9 | 0.00 | 0.00 | 0.00 | 92 | 1014.0 |
| 20260507103252 | 55 | 343 | 0.9 | 0.9 | 0.00 | 0.00 | 0.00 | 92 | 1013.9 |
| 20260507102749 | 55 | 336 | 0.9 | 1.7 | 0.00 | 0.00 | 0.00 | 92 | 1013.8 |
| 20260507102245 | 55 | 346 | 0.9 | 1.7 | 0.00 | 0.00 | 0.00 | 92 | 1014.0 |
| 20260507101741 | 55 | 338 | 0.9 | 1.7 | 0.00 | 0.00 | 0.00 | 92 | 1013.9 |
| 20260507101236 | 55 | 335 | 0.9 | 1.7 | 0.00 | 0.00 | 0.00 | 92 | 1013.9 |
| 20260507100734 | 55 | 345 | 0.9 | 1.7 | 0.00 | 0.00 | 0.00 | 91 | 1013.9 |
| 20260507100232 | 55 | 339 | 0.0 | 1.7 | 0.00 | 0.00 | 0.00 | 91 | 1013.9 |
| 20260507095730 | 55 | 3 | 0.9 | 1.7 | 0.00 | 0.00 | 0.00 | 92 | 1013.8 |
| 20260507095226 | 55 | 353 | 0.0 | 1.7 | 0.00 | 0.00 | 0.00 | 92 | 1014.1 |
| 20260507094723 | 55 | 6 | 0.9 | 1.7 | 0.00 | 0.00 | 0.00 | 91 | 1014.0 |
| 20260507094220 | 55 | 323 | 1.7 | 1.7 | 0.00 | 0.00 | 0.00 | 91 | 1014.0 |
| 20260507093717 | 55 | 355 | 0.0 | 1.7 | 0.00 | 0.00 | 0.00 | 91 | 1014.2 |
| 20260507093216 | 55 | 341 | 0.9 | 1.7 | 0.00 | 0.00 | 0.00 | 90 | 1014.2 |
| 20260507092713 | 56 | 332 | 0.9 | 1.7 | 0.00 | 0.00 | 0.00 | 90 | 1014.2 |
| 20260507092209 | 56 | 340 | 0.9 | 1.7 | 0.00 | 0.00 | 0.00 | 90 | 1014.3 |
| 20260507091705 | 56 | 357 | 0.9 | 1.7 | 0.00 | 0.00 | 0.00 | 90 | 1014.2 |
| 20260507091202 | 56 | 354 | 0.9 | 1.7 | 0.00 | 0.00 | 0.00 | 91 | 1014.4 |
| 20260507090657 | 56 | 325 | 0.0 | 1.7 | 0.00 | 0.00 | 0.00 | 91 | 1014.2 |
| 20260507090154 | 56 | 350 | 0.9 | 1.7 | 0.00 | 0.00 | 0.00 | 91 | 1014.3 |
| 20260507085652 | 56 | 330 | 0.0 | 1.7 | 0.00 | 0.00 | 0.00 | 91 | 1014.3 |
| 20260507085148 | 56 | 332 | 0.0 | 1.7 | 0.00 | 0.00 | 0.00 | 91 | 1014.5 |
| 20260507084645 | 56 | 333 | 0.9 | 0.9 | 0.00 | 0.00 | 0.00 | 91 | 1014.6 |
| 20260507084142 | 56 | 339 | 0.9 | 1.7 | 0.00 | 0.00 | 0.00 | 91 | 1014.5 |
| 20260507083639 | 56 | 331 | 0.9 | 1.7 | 0.00 | 0.00 | 0.00 | 91 | 1014.6 |
| 20260507083135 | 56 | 356 | 0.0 | 1.7 | 0.00 | 0.00 | 0.00 | 91 | 1014.7 |
| 20260507082631 | 56 | 341 | 0.9 | 1.7 | 0.00 | 0.00 | 0.00 | 91 | 1014.7 |
| 20260507082128 | 56 | 351 | 0.9 | 1.7 | 0.00 | 0.00 | 0.00 | 91 | 1014.6 |
| 20260507081625 | 56 | 347 | 0.9 | 1.7 | 0.00 | 0.00 | 0.00 | 91 | 1014.7 |
| 20260507081121 | 56 | 333 | 1.7 | 1.7 | 0.00 | 0.00 | 0.00 | 90 | 1014.7 |
| 20260507080617 | 57 | 327 | 0.0 | 1.7 | 0.00 | 0.00 | 0.00 | 90 | 1014.8 |
| 20260507080115 | 57 | 328 | 1.7 | 1.7 | 0.00 | 0.00 | 0.00 | 90 | 1014.6 |
| 20260507075614 | 57 | 347 | 0.9 | 1.7 | 0.00 | 0.00 | 0.00 | 91 | 1014.6 |
| 20260507075111 | 57 | 329 | 0.0 | 0.9 | 0.00 | 0.00 | 0.00 | 91 | 1014.8 |
| 20260507074608 | 57 | 330 | 0.9 | 1.7 | 0.00 | 0.00 | 0.00 | 90 | 1014.5 |
| 20260507074106 | 57 | 332 | 0.9 | 1.7 | 0.00 | 0.00 | 0.00 | 90 | 1014.9 |
| 20260507073602 | 57 | 342 | 0.0 | 1.7 | 0.00 | 0.00 | 0.00 | 91 | 1014.8 |
| 20260507073058 | 57 | 339 | 0.9 | 1.7 | 0.00 | 0.00 | 0.00 | 90 | 1014.7 |
| 20260507072556 | 57 | 334 | 0.9 | 1.7 | 0.00 | 0.00 | 0.00 | 91 | 1014.8 |
| 20260507072053 | 57 | 9 | 0.0 | 1.7 | 0.00 | 0.00 | 0.00 | 90 | 1014.9 |
| 20260507071551 | 57 | 8 | 0.0 | 1.7 | 0.00 | 0.00 | 0.00 | 90 | 1015.0 |
| 20260507071047 | 57 | 1 | 0.9 | 1.7 | 0.00 | 0.00 | 0.00 | 89 | 1014.8 |
| 20260507070544 | 57 | 341 | 0.0 | 1.7 | 0.00 | 0.00 | 0.00 | 89 | 1014.9 |
| 20260507070041 | 57 | 334 | 0.0 | 1.7 | 0.00 | 0.00 | 0.00 | 90 | 1014.9 |
| 20260507065537 | 58 | 339 | 0.0 | 1.7 | 0.00 | 0.00 | 0.00 | 90 | 1014.8 |
| 20260507065034 | 58 | 0 | 0.9 | 1.7 | 0.00 | 0.00 | 0.00 | 90 | 1015.0 |
| 20260507064532 | 58 | 324 | 1.7 | 1.7 | 0.00 | 0.00 | 0.00 | 89 | 1015.0 |
| 20260507064031 | 58 | 346 | 0.9 | 1.7 | 0.00 | 0.00 | 0.00 | 89 | 1014.9 |
| 20260507063527 | 58 | 2 | 0.9 | 1.7 | 0.00 | 0.00 | 0.00 | 88 | 1015.1 |
| 20260507063025 | 58 | 351 | 0.9 | 1.7 | 0.00 | 0.00 | 0.00 | 88 | 1015.1 |
| 20260507062521 | 58 | 331 | 0.9 | 1.7 | 0.00 | 0.00 | 0.00 | 88 | 1015.0 |
| 20260507062019 | 58 | 321 | 0.9 | 1.7 | 0.00 | 0.00 | 0.00 | 88 | 1015.2 |
| 20260507061517 | 58 | 327 | 0.9 | 1.7 | 0.00 | 0.00 | 0.00 | 88 | 1014.9 |
| 20260507061015 | 58 | 339 | 0.9 | 1.7 | 0.00 | 0.00 | 0.00 | 87 | 1015.1 |
| 20260507060512 | 58 | 327 | 0.9 | 1.7 | 0.00 | 0.00 | 0.00 | 87 | 1015.1 |
| 20260507060009 | 58 | 315 | 1.7 | 1.7 | 0.00 | 0.00 | 0.00 | 87 | 1014.9 |
| 20260507055503 | 58 | 318 | 0.9 | 1.7 | 0.00 | 0.00 | 0.00 | 87 | 1014.9 |
| 20260507055000 | 59 | 337 | 0.9 | 1.7 | 0.00 | 0.00 | 0.00 | 87 | 1015.1 |